Starlink 35913

operational
NORAD ID: 67004 Int'l Des: 2025-293 Owner: SPXS Country: US Constellation: starlink
LEOCIRCULAR

Starlink 35913について

説明を読み込み中...

リアルタイム位置

3D地球を読み込み中...

次回通過

高度履歴

Altitude vs Time

uPlot chart will show altitude changes over time

軌道要素

1 67004C 25293B 25346.10256944 -.00524850 00000+0 -74727-3 0 3460
2 67004 69.9976 325.9314 0004505 268.3709 190.4770 16.05848663 17
Epoch: Dec 12, 2025 • Age: 58 hours

現在のステータス

高度 276.3 km
速度 7.75 km/s
衛星直下点 57.42°N, 125.25°E
打ち上げ日 Dec 10, 2025
運用期間 3 days
タイプ internet

技術仕様

分類 Payload
質量 575.00 kg
乾燥質量 530.00 kg
総質量 575.00 kg
長さ 0.30 m
直径 4.10 m
スパン 29.00 m
形状 Box + pan
製造者 SPXS
バスタイプ Starlink V2MO
フェーズステータス In Orbit
所有者/国 SPXS/US

大規模コンステレーション

Loading constellations...